Location: Mahannah Oil Field
(37.4664°N, 96.6003°W)
Time: 00:40:29
(UTC+00:00)

A-11 Canister half - Pass Details

Date: 30 January 2021
Orbit: 1524 x 1684 km, 47.3° (Epoch: 25 February)

Event Time Altitude Azimuth Distance (km) Brightness Sun altitude
Rises 18:05:51 0° 217° (SW) 4,671 12.1 34.5°
Reaches altitude 10° 18:08:57 10° 213° (SSW) 3,684 11.8 34.6°
Maximum altitude 18:17:56 57° 138° (SE) 1,746 10.5 34.8°
Drops below altitude 10° 18:27:00 10° 62° (ENE) 3,724 10.9 35.0°
Sets 18:30:08 0° 59° (ENE) 4,725 11.3 35.0°
